Home   Weather   Wismar   Past weeks

Flag for Germany Past Weather in Wismar, Mecklenburg-Western Pomerania, Germany — Yesterday and Last 2 Weeks

Now
36 °F

Passing clouds.


Feels Like: 33 °F
Forecast: 30 / 38 °F
Wind: 3 mph from West

Location: Luebeck-Blankensee

Current Time: Dec 4, 2016 at 5:20:03 pm

Latest Report: Dec 4, 2016 at 4:50 pm


Visibility: N/A

Pressure: 30.42 "Hg

Humidity: 93%

Dew Point: 34 °F

Location of WismarLocation

Past Weather in Wismar — Graph

°F

Wismar Temperature Yesterday

Maximum temperature yesterday: 30 °F (at 1:20 pm)
Minimum temperature yesterday: 23 °F (at 6:20 am)
Average temperature yesterday: 27 °F

High & Low Weather Summary for the Past Weeks

 TemperatureHumidityPressure
High55 °F (Nov 21, 12:20 pm)100% (Nov 23, 6:50 am)30.54 "Hg (Nov 23, 6:50 am)
Low23 °F (Nov 29, 6:20 am)52% (Nov 28, 2:50 pm)29.36 "Hg (Nov 20, 3:50 pm)
Average40 °F85%30.10 "Hg
* Reported Nov 19 3:20 pm — Dec 4 3:50 pm, Wismar, Weather by CustomWeather, © 2016

Note: Actual official high and low records may vary slightly from our data, if they occured in-between our weather recording intervals... More about our weather records

Advertising

Wismar Weather History for the Previous 24 Hours

Scroll right to see more
 ConditionsComfort  
Time TempWeatherWind HumidityBarometerVisibility
3:50 pm
Sun, Dec 4
36 °FPartly sunny.3 mph93%30.39 "HgN/A
3:20 pm37 °FPartly sunny.5 mph87%30.39 "HgN/A
2:50 pm37 °FPartly sunny.2 mph87%30.42 "HgN/A
2:20 pm37 °FPartly sunny.3 mph87%30.42 "HgN/A
1:50 pm37 °FPartly sunny.5 mph87%30.42 "HgN/A
1:20 pm37 °FPartly sunny.5 mph87%30.42 "HgN/A
12:50 pm37 °FPartly sunny.5 mph87%30.42 "HgN/A
12:20 pm37 °FPartly sunny.3 mph87%30.42 "HgN/A
11:50 am36 °FPartly sunny.5 mph93%30.42 "HgN/A
11:20 am36 °FPartly sunny.5 mph93%30.42 "HgN/A
10:50 am36 °FPartly sunny.3 mph93%30.42 "HgN/A
10:20 am34 °FPartly sunny.2 mph100%30.42 "HgN/A
9:50 am32 °FPartly sunny.3 mph100%30.39 "HgN/A
9:20 am32 °FPartly sunny.3 mph100%30.39 "HgN/A
8:50 am32 °FPartly sunny.5 mph100%30.39 "HgN/A
8:20 am32 °FPartly sunny.5 mph100%30.39 "HgN/A
7:50 am32 °FPassing clouds.2 mph100%30.39 "HgN/A
7:20 am32 °FPassing clouds.2 mph100%30.36 "HgN/A
6:50 am32 °FPassing clouds.5 mph100%30.36 "HgN/A
6:20 pm
Sat, Dec 3
27 °FIce fog.3 mph100%30.33 "Hg1 mi
5:50 pm27 °FIce fog.2 mph100%30.33 "Hg1 mi
5:20 pm27 °FIce fog.2 mph100%30.30 "Hg2 mi
Weather by CustomWeather, © 2016

See weather overviewHow to use our weather pages